"Pseudo-MPEC" for P11DwJR
Created 2023 Mar 20 6:22:15 UT using Find_Orb
Click here for an explanation of pseudo-MPECs
Astrometry: P11DwJR* C2023 03 17=coo,`dGqiEwwgS4.UZ[6i'-uwLii-O996#:al:8C'EXjl%k5%rB
F51 P11DwJR C2023 03 17!o`M9A=J09`3T!%nmO84?9'E*JV9%y-?t$?E42_G@;4.(dG=]:x(
F51 P11DwJR C2023 03 17xn-.-24a?-5wLZ19tXY58HwAfx8Ilj,j^9yF%3-yuBvGW.:+@t@Y
F51 P11DwJR C2023 03 17BqT.pF1b6=-NV`t6s[5HX1pisdtn^nMZe[B5'Txqq_y(ENrc-AAr
F51 P11DwJR C2023 03 17k0lU^`nRgNHq-)%+TvDSXi'Pbk]]f0NQV)5pQh]`_QmBVSv,w)eA
F52 P11DwJR C2023 03 17eo)0-
Astrometryfv=nMsQ=i)+cE?:8aJk7VC@ud+EG;Rglo[?Bf
F52 P11DwJR KC2023 03 186eoAEXfdLY%v$-G\\1B'2]YyO(4I$!_Cp[h)!R/ZW,_Mm`dOL,1^
L01 P11DwJR KC2023 03 18CD8M'Lv+M5Oxp=[LJj,[PEcC,MMX38V\T)c[YI.IR`sIAEsfR/wr
L01 P11DwJR KC2023 03 18:]yg;2Y2h;@LY!_(d.4$(]FMW2Y@(18Bn7cdIBPk8pqqL1S6?g:!
L01 P11DwJR KC2023 03 18J:)[
redacted;!/MmQv*;:-7jSO:Jf[SVUtK0y?94FV6/]]:3h/M
L01 P11DwJR KC2023 03 18OGq\v2-QRB*/QY4bXSUlSe\I@W\bfdkg[Nm5o1S/c2w%D*Zk8'TI
L01 P11DwJR 2C2023 03 18!e_c,#/s_]7,L,,]`oFLl%qQ:i:Cw=E=bIZqB?.4KZ@2Z'-NDXY8
K93 P11DwJR 2C2023 03 18tRqyoppKY?+*$mPPMJE+wlK
clickJ*Tx``I`U@VZSPf]lj*Bt2Fj
K93 P11DwJR 2C2023 03 18WQhOC9kGxyy^_Ixni/Ov9oY+9d'hvMX-YF7V:\Xl\W*uZ)j#lsy+
K93 P11DwJR 2C2023 03 18B3j[QqIMx\4W(%hvbFhxWs
heres8V=;Hjo-2(wnYHq`SN2\T
for2
K93 P11DwJR KC2023 03 19F!n#Ngo*_eRO
explanationZ9b60u8'58[cJqqJ)gJ^[(2#wbHkv
H21 P11DwJR KC2023 03 19a-lQ=giy(Z@R+7Wh%''`/9=a0Y#2KTNXF%PhIOjQcd]n:6[v=u+1
H21 P11DwJR KC2023 03 199FArJ-wX[0$;`ld57oR!,FWG6lCTh(?[)`-SG+1);ixU\bjM1BN=
H21 Station data: (F51) Pan-STARRS 1, Haleakala (N20.707234 W156.255910) US/Hawaii. Observers J. Bulger, T. Lowe, A. Schultz, M. Willman. Measurers K. Chambers, S. Chastel, T. de Boer, L. Denneau, J. Fairlamb, H. Flewelling, M. Huber, C.-C. Lin, E. Magnier, Y. Ramanjooloo, R. Wainscoat, R. Weryk. 1.8-m Ritchey-Chrétien + CCD. (F52) Pan-STARRS 2, Haleakala (N20.707382 W156.255910) US/Hawaii. Observers J. Bulger, T. Dukes, T. Lowe, A. Schultz, M. Willman. Measurers K. Chambers, S. Chastel, T. de Boer, L. Denneau, J. Fairlamb, H. Flewelling, M. Huber, C.-C. Lin, E. Magnier, Y. Ramanjooloo, R. Wainscoat, R. Weryk. 1.8-m Ritchey-Chrétien + CCD. (H21) Astronomical Research Observatory, Westfield (N39.483054 W87.968270) US/Illinois. Observer R. Holmes. Measurers S. Foglia, L. Buzzi, T. Linder, R. Holmes. 0.76-m f/3.0 astrograph + CCD0.81-m f/4.0 astrograph + CCD0.61-m f/4.5 astrograph + CCD0.40-m f/5.32 astrograph + CCD. (K93) Sutherland-LCOGT C (S32.380667 E20.810110) South Africa. Observer R. Miles. 1.0-m f/8.0 Ritchey-Chrétien + CCD. (L01) Višnjan Observatory, Tičan (N45.290897 E13.749300) Croatia. Observers K. Korlević, D. Pujagic, V. Dobos. Measurers D. Pujagic, K. Korlević. 1.0-m f/2.9 reflector + CCD. Orbital elements: P11DwJR Perihelion 2023 Mar 4.07927 +/- 43.4 TT = 1:54:09 (JD 2460007.57927) Epoch 2023 Mar 19.0 TT = JDT 2460022.5 Earth MOID: 0.5495 Ju: 0.8701 M 3.00595907 +/- 13 (J2000 ecliptic) AutoNEOCP n 0.20146198 +/- 0.0748 Peri. 110.29339 +/- 39 a 2.88186730 +/- 0.714 Node 71.17702 +/- 9 e 0.4716873 +/- 0.0942 Incl. 8.09989 +/- 1.3 P 4.89 H 19.64 G 0.15 U 11.0 SR q 1.52252704 +/- 0.138 Q 4.24120756 +/- 1.53 From 18 observations 2023 Mar. 17-19 (44.0 hr); mean residual 0".67
Residuals in arcseconds: 230317 F51 .21+ .07- 230318 L01 .93- .57+ 230318 K93 1.1- .22- 230317 F51 .17+ .14- 230318 L01 1.2- .54+ 230318 K93 1.0- .19- 230317 F51 .23+ .01- 230318 L01 1.5- .46+ 230318 K93 1.1- .10- 230317 F51 .18+ .03+ 230318 L01 1.3- .37+ 230319 H21 1.0+ .12- 230317 F52 .21+ .02- 230318 L01 1.1- .47+ 230319 H21 .74+ .11- 230317 F52 .21+ .00 230318 K93 1.1- .18- 230319 H21 .91+ .18- Ephemerides (geocentric): Date (UTC) HH RA Dec delta r elong mag " sig PA ---- -------- ------------ ------------ ------ ------ ----- --- -------- 2023 03 20 06 14 30 35.024 +03 32 43.81 .62057 1.5304 141.4 20.7 5.09 20 2023 03 20 07 14 30 35.960 +03 32 36.00 .62044 1.5304 141.4 20.7 5.35 20 2023 03 20 08 14 30 36.892 +03 32 28.19 .62032 1.5304 141.4 20.7 5.63 20 2023 03 20 09 14 30 37.818 +03 32 20.36 .62019 1.5305 141.5 20.7 5.91 20 2023 03 20 10 14 30 38.740 +03 32 12.52 .62007 1.5305 141.5 20.7 6.20 20 2023 03 20 11 14 30 39.657 +03 32 04.68 .61995 1.5306 141.5 20.7 6.49 20 2023 03 20 12 14 30 40.569 +03 31 56.83 .61982 1.5306 141.6 20.7 6.79 20 2023 03 20 13 14 30 41.476 +03 31 48.97 .61970 1.5306 141.6 20.7 7.09 20 2023 03 20 14 14 30 42.378 +03 31 41.10 .61957 1.5307 141.6 20.7 7.40 20 2023 03 20 15 14 30 43.276 +03 31 33.22 .61945 1.5307 141.7 20.7 7.71 20 2023 03 20 16 14 30 44.168 +03 31 25.34 .61933 1.5308 141.7 20.7 8.03 20 2023 03 20 17 14 30 45.056 +03 31 17.44 .61920 1.5308 141.7 20.7 8.36 20 2023 03 20 18 14 30 45.939 +03 31 09.54 .61908 1.5309 141.8 20.7 8.69 20 2023 03 20 19 14 30 46.817 +03 31 01.63 .61896 1.5309 141.8 20.7 9.03 20 2023 03 20 20 14 30 47.690 +03 30 53.71 .61884 1.5309 141.8 20.7 9.37 20 2023 03 20 21 14 30 48.558 +03 30 45.78 .61871 1.5310 141.9 20.7 9.71 20 2023 03 20 22 14 30 49.421 +03 30 37.84 .61859 1.5310 141.9 20.7 10.1 20 2023 03 20 23 14 30 50.280 +03 30 29.89 .61847 1.5311 141.9 20.7 10.4 20 2023 03 21 00 14 30 51.133 +03 30 21.93 .61835 1.5311 142.0 20.7 10.8 20 2023 03 21 01 14 30 51.982 +03 30 13.97 .61823 1.5311 142.0 20.7 11.2 20 2023 03 21 02 14 30 52.826 +03 30 06.00 .61810 1.5312 142.0 20.7 11.5 20 2023 03 21 03 14 30 53.665 +03 29 58.01 .61798 1.5312 142.1 20.7 11.9 20 2023 03 21 04 14 30 54.499 +03 29 50.02 .61786 1.5313 142.1 20.7 12.3 20 2023 03 21 05 14 30 55.328 +03 29 42.02 .61774 1.5313 142.1 20.7 12.7 20 2023 03 21 06 14 30 56.153 +03 29 34.01 .61762 1.5314 142.2 20.7 13.1 20 2023 03 21 07 14 30 56.972 +03 29 25.99 .61750 1.5314 142.2 20.7 13.5 20 2023 03 21 08 14 30 57.787 +03 29 17.96 .61738 1.5314 142.2 20.7 13.9 20 2023 03 21 09 14 30 58.597 +03 29 09.92 .61726 1.5315 142.3 20.7 14.3 20 2023 03 21 10 14 30 59.402 +03 29 01.88 .61714 1.5315 142.3 20.7 14.7 20 2023 03 21 11 14 31 00.202 +03 28 53.82 .61702 1.5316 142.3 20.7 15.1 20 2023 03 21 12 14 31 00.998 +03 28 45.75 .61690 1.5316 142.4 20.7 15.6 20 2023 03 21 13 14 31 01.788 +03 28 37.68 .61678 1.5317 142.4 20.7 16.0 20 2023 03 21 14 14 31 02.574 +03 28 29.59 .61667 1.5317 142.4 20.7 16.4 20 2023 03 21 15 14 31 03.355 +03 28 21.50 .61655 1.5317 142.5 20.7 16.9 20 2023 03 21 16 14 31 04.131 +03 28 13.39 .61643 1.5318 142.5 20.7 17.3 20 2023 03 21 17 14 31 04.902 +03 28 05.28 .61631 1.5318 142.5 20.7 17.8 20 2023 03 21 18 14 31 05.668 +03 27 57.16 .61619 1.5319 142.6 20.7 18.2 20 2023 03 21 19 14 31 06.430 +03 27 49.02 .61608 1.5319 142.6 20.7 18.7 20 2023 03 21 20 14 31 07.186 +03 27 40.88 .61596 1.5320 142.6 20.7 19.2 20 2023 03 21 21 14 31 07.938 +03 27 32.73 .61584 1.5320 142.7 20.7 19.6 20 2023 03 21 22 14 31 08.685 +03 27 24.57 .61572 1.5321 142.7 20.7 20.1 20 2023 03 21 23 14 31 09.427 +03 27 16.40 .61561 1.5321 142.7 20.7 20.6 20 2023 03 22 00 14 31 10.164 +03 27 08.21 .61549 1.5321 142.8 20.7 21.1 20 2023 03 22 01 14 31 10.897 +03 27 00.02 .61537 1.5322 142.8 20.7 21.6 20 2023 03 22 02 14 31 11.625 +03 26 51.82 .61526 1.5322 142.8 20.7 22.1 20 2023 03 22 03 14 31 12.347 +03 26 43.61 .61514 1.5323 142.9 20.7 22.6 20 2023 03 22 04 14 31 13.065 +03 26 35.39 .61503 1.5323 142.9 20.7 23.1 20 2023 03 22 05 14 31 13.779 +03 26 27.16 .61491 1.5324 142.9 20.7 23.6 20